Location: Peterborough
(44.3091°N, 78.3197°W)
Time: 00:43:10
(UTC-04:00)

S-56A Canister/Altair - Pass Details

Date: 24 March 2023
Orbit: 639 x 2492 km, 38.9° (Epoch: 02 June)

Event Time Altitude Azimuth Distance (km) Brightness Sun altitude
Rises 01:04:36 0° 279° (W) 5,974 12.2 -44.2°
Reaches altitude 10° 01:08:26 10° 276° (W) 5,071 11.7 -44.3°
Enters shadow 01:15:56 35° 261° (W) 3,500 10.6 -44.4°
